Location: Le Gr�zie
(43.6000°N, 13.5000°E)
Time: 11:00:53
(UTC+00:00)

ATLAS 2AS CENTAUR R/B - Pass Details

Date: 09 April 2020
Orbit: 931 x 1280 km, 63.7° (Epoch: 31 May)

Event Time Altitude Azimuth Distance (km) Brightness Sun altitude
Rises 18:07:09 0° 324° (NW) 4,184 6.8 -5.1°
Reaches altitude 10° 18:10:04 10° 327° (NNW) 3,177 6.0 -5.6°
Maximum altitude 18:17:40 68° 50° (NE) 1,234 3.0 -6.9°
Drops below altitude 10° 18:24:36 10° 133° (SE) 2,913 4.4 -8.1°
Enters shadow 18:25:27 - 134° (SE) 3,210 4.6 -8.3°
